RYR50XY LFMU-EGGW

Flight info

Callsign RYR50XY
Flight time 1h 29m
Altitude 38000
Route FJR DCT NG DCT MOLEN DCT MTL DCT ETREK DCT MADOT DCT MOPEM DCT CACHI DCT AVLON DCT OKRIX DCT BRY DCT CLM DCT KOPOR DCT PIREG DCT SOSUN DCT SUBIP UM733 UNDUG
Aircraft B738/M-SDE3FGILRWY/SB1

Departure

Time 2026-04-28 16:21
Airport Béziers Vias airport (LFMU)

Arrival

Time 2026-04-28 17:50
Airport London Luton Airport (EGGW)
Time Latitude Longitude Altitude Speed Heading
2026-04-28 16:21 43.35533 3.44762 3769 ft 228 kts 52°
2026-04-28 16:21 43.36595 3.46521 4229 ft 254 kts 53°
2026-04-28 16:21 43.37769 3.48491 4776 ft 273 kts 53°
2026-04-28 16:21 43.38981 3.50538 5660 ft 278 kts 53°
2026-04-28 16:22 43.40191 3.52597 6556 ft 283 kts 53°
2026-04-28 16:22 43.41430 3.54717 7444 ft 286 kts 53°
2026-04-28 16:22 43.42687 3.56874 8308 ft 291 kts 53°
2026-04-28 16:22 43.43954 3.59068 9193 ft 295 kts 55°
2026-04-28 16:23 43.45022 3.61498 10049 ft 299 kts 64°
2026-04-28 16:23 43.45961 3.64121 10588 ft 315 kts 65°
2026-04-28 16:23 43.46940 3.66965 10780 ft 342 kts 65°
2026-04-28 16:23 43.47991 3.70000 11245 ft 357 kts 65°
2026-04-28 16:24 43.49084 3.73109 11946 ft 364 kts 64°
2026-04-28 16:24 43.50206 3.76259 12722 ft 368 kts 64°
2026-04-28 16:24 43.51347 3.79437 13557 ft 372 kts 64°
2026-04-28 16:24 43.52506 3.82653 14253 ft 377 kts 63°
2026-04-28 16:25 43.53683 3.85919 14918 ft 383 kts 63°
2026-04-28 16:25 43.54874 3.89225 15654 ft 387 kts 64°
2026-04-28 16:25 43.56079 3.92574 16354 ft 393 kts 64°
2026-04-28 16:25 43.57299 3.95971 17014 ft 398 kts 64°
2026-04-28 16:26 43.58569 3.99378 17750 ft 401 kts 61°
2026-04-28 16:26 43.59965 4.02729 18466 ft 406 kts 59°
2026-04-28 16:26 43.61427 4.06096 19031 ft 411 kts 59°
2026-04-28 16:26 43.62892 4.09453 19582 ft 415 kts 59°
2026-04-28 16:27 43.64398 4.12931 20177 ft 419 kts 59°
2026-04-28 16:27 43.65889 4.16410 20793 ft 423 kts 60°
2026-04-28 16:27 43.68897 4.23499 21925 ft 431 kts 60°
2026-04-28 16:28 43.70416 4.27097 22477 ft 435 kts 60°
2026-04-28 16:28 43.71429 4.29497 22827 ft 438 kts 60°
2026-04-28 16:28 43.73493 4.34392 23526 ft 443 kts 60°
2026-04-28 16:28 43.75101 4.37974 23952 ft 447 kts 52°
2026-04-28 16:29 43.80061 4.43013 24824 ft 447 kts 17°
2026-04-28 16:29 43.86135 4.45044 25757 ft 448 kts
2026-04-28 16:30 43.89193 4.45963 26152 ft 451 kts
2026-04-28 16:30 43.92224 4.46905 26551 ft 454 kts 10°
2026-04-28 16:30 43.95307 4.47898 26987 ft 456 kts 10°
2026-04-28 16:30 43.98405 4.48918 27401 ft 458 kts 11°
2026-04-28 16:31 44.01512 4.49947 27817 ft 460 kts 11°
2026-04-28 16:31 44.04630 4.50980 28209 ft 462 kts 11°
2026-04-28 16:31 44.07730 4.52242 28575 ft 467 kts 17°
2026-04-28 16:31 44.10783 4.53814 28951 ft 470 kts 19°
2026-04-28 16:32 44.13829 4.55492 29339 ft 472 kts 19°
2026-04-28 16:32 44.19984 4.58908 29926 ft 478 kts 19°
2026-04-28 16:32 44.23083 4.60596 30291 ft 479 kts 18°
2026-04-28 16:33 44.26197 4.62271 30606 ft 480 kts 18°
2026-04-28 16:33 44.27249 4.62835 30716 ft 480 kts 18°
2026-04-28 16:33 44.32441 4.65606 31315 ft 479 kts 18°
2026-04-28 16:33 44.35547 4.67266 31680 ft 479 kts 18°
2026-04-28 16:34 44.38669 4.68936 31990 ft 480 kts 18°
2026-04-28 16:34 44.41781 4.70605 32341 ft 480 kts 18°
2026-04-28 16:34 44.44893 4.72276 32726 ft 479 kts 18°
2026-04-28 16:34 44.48000 4.73947 33087 ft 478 kts 18°
2026-04-28 16:35 44.51110 4.75601 33424 ft 477 kts 15°
2026-04-28 16:35 44.54264 4.76748 33724 ft 472 kts
2026-04-28 16:35 44.57515 4.77193 34041 ft 467 kts 356°
2026-04-28 16:35 44.60733 4.76996 34352 ft 460 kts 347°
2026-04-28 16:36 44.63881 4.76310 34700 ft 456 kts 345°
2026-04-28 16:36 44.67010 4.75571 35002 ft 455 kts 345°
2026-04-28 16:36 44.70136 4.74825 35274 ft 456 kts 345°
2026-04-28 16:36 44.73257 4.74092 35595 ft 454 kts 345°
2026-04-28 16:37 44.76419 4.73367 35960 ft 452 kts 346°
2026-04-28 16:37 44.79518 4.72668 36285 ft 451 kts 346°
2026-04-28 16:37 44.82574 4.71985 36536 ft 451 kts 346°
2026-04-28 16:38 44.88781 4.70602 37061 ft 450 kts 346°
2026-04-28 16:38 44.91869 4.69914 37397 ft 448 kts 346°
2026-04-28 16:38 44.94946 4.69228 37735 ft 446 kts 346°
2026-04-28 16:38 44.98005 4.68544 37979 ft 445 kts 346°
2026-04-28 16:39 45.01072 4.67854 37994 ft 449 kts 346°
2026-04-28 16:39 45.07248 4.66466 38007 ft 448 kts 346°
2026-04-28 16:40 45.13372 4.65090 38017 ft 444 kts 346°
2026-04-28 16:40 45.19460 4.63717 38016 ft 442 kts 346°
2026-04-28 16:41 45.25515 4.62339 38030 ft 440 kts 345°
2026-04-28 16:41 45.31558 4.60956 38036 ft 440 kts 345°
2026-04-28 16:42 45.37611 4.59567 38023 ft 441 kts 345°
2026-04-28 16:42 45.43680 4.58174 38028 ft 443 kts 345°
2026-04-28 16:43 45.49741 4.56779 38042 ft 445 kts 345°
2026-04-28 16:43 45.55869 4.55366 38030 ft 447 kts 346°
2026-04-28 16:44 45.62025 4.53945 38021 ft 449 kts 346°
2026-04-28 16:44 45.68204 4.52514 38025 ft 451 kts 346°
2026-04-28 16:45 45.73402 4.51309 38026 ft 452 kts 346°
2026-04-28 16:45 45.79569 4.49875 38027 ft 452 kts 346°
2026-04-28 16:46 45.85421 4.48513 38023 ft 451 kts 346°
2026-04-28 16:46 45.91612 4.47068 38039 ft 451 kts 346°
2026-04-28 16:47 45.97803 4.45619 38020 ft 450 kts 346°
2026-04-28 16:47 46.03977 4.44171 38027 ft 449 kts 346°
2026-04-28 16:48 46.10140 4.42722 38031 ft 449 kts 346°
2026-04-28 16:48 46.16308 4.41268 38022 ft 449 kts 346°
2026-04-28 16:49 46.22473 4.39812 38018 ft 449 kts 346°
2026-04-28 16:49 46.28636 4.38338 38041 ft 448 kts 344°
2026-04-28 16:50 46.34710 4.36363 38020 ft 447 kts 341°
2026-04-28 16:50 46.40751 4.34154 38000 ft 449 kts 341°
2026-04-28 16:51 46.46819 4.31962 38005 ft 450 kts 341°
2026-04-28 16:51 46.52902 4.29806 38004 ft 451 kts 341°
2026-04-28 16:52 46.59013 4.27652 38004 ft 452 kts 341°
2026-04-28 16:52 46.65138 4.25488 38000 ft 453 kts 341°
2026-04-28 16:53 46.71269 4.23316 38001 ft 454 kts 341°
2026-04-28 16:53 46.77403 4.21137 38006 ft 454 kts 341°
2026-04-28 16:54 46.83540 4.18951 38001 ft 454 kts 341°
2026-04-28 16:54 46.89634 4.16776 38015 ft 453 kts 341°
2026-04-28 16:55 46.95763 4.14583 38015 ft 453 kts 341°
2026-04-28 16:55 47.01886 4.12386 38000 ft 453 kts 341°
2026-04-28 16:56 47.07958 4.10062 38001 ft 449 kts 335°
2026-04-28 16:56 47.13719 4.06724 38011 ft 445 kts 332°
2026-04-28 16:57 47.19434 4.03201 37999 ft 446 kts 332°
2026-04-28 16:57 47.25177 3.99734 38001 ft 446 kts 333°
2026-04-28 16:58 47.30938 3.96306 38000 ft 446 kts 333°
2026-04-28 16:58 47.36702 3.92880 38007 ft 447 kts 333°
2026-04-28 16:59 47.42471 3.89440 38004 ft 448 kts 333°
2026-04-28 16:59 47.48254 3.85981 38002 ft 449 kts 333°
2026-04-28 17:00 47.54044 3.82510 38012 ft 449 kts 333°
2026-04-28 17:00 47.59847 3.79025 37999 ft 450 kts 333°
2026-04-28 17:01 47.65662 3.75526 37993 ft 451 kts 333°
2026-04-28 17:01 47.71480 3.72016 37999 ft 451 kts 333°
2026-04-28 17:02 47.77302 3.68494 38006 ft 452 kts 333°
2026-04-28 17:02 47.83128 3.64962 38003 ft 452 kts 333°
2026-04-28 17:03 47.91861 3.59650 37997 ft 452 kts 333°
2026-04-28 17:03 47.97682 3.56099 38018 ft 451 kts 333°
2026-04-28 17:04 48.06392 3.50751 38004 ft 451 kts 333°
2026-04-28 17:05 48.15080 3.45393 38006 ft 450 kts 333°
2026-04-28 17:06 48.23716 3.40049 38026 ft 450 kts 333°
2026-04-28 17:06 48.32393 3.34658 38024 ft 450 kts 333°
2026-04-28 17:07 48.38187 3.31049 38024 ft 451 kts 333°
2026-04-28 17:07 48.43978 3.27413 38034 ft 451 kts 333°
2026-04-28 17:08 48.49760 3.23722 38034 ft 452 kts 333°
2026-04-28 17:08 48.55547 3.20014 38039 ft 452 kts 333°
2026-04-28 17:09 48.61339 3.16300 38052 ft 452 kts 333°
2026-04-28 17:09 48.67140 3.12573 38043 ft 453 kts 333°
2026-04-28 17:10 48.72942 3.08836 38048 ft 453 kts 333°
2026-04-28 17:10 48.78748 3.05088 38059 ft 454 kts 333°
2026-04-28 17:11 48.84557 3.01309 38044 ft 454 kts 332°
2026-04-28 17:11 48.90082 2.96759 38054 ft 451 kts 326°
2026-04-28 17:12 48.95486 2.91881 38048 ft 452 kts 326°
2026-04-28 17:12 49.00907 2.87029 38050 ft 452 kts 326°
2026-04-28 17:13 49.06356 2.82216 38056 ft 453 kts 327°
2026-04-28 17:13 49.11788 2.77433 38052 ft 453 kts 327°
2026-04-28 17:14 49.17281 2.72585 38056 ft 454 kts 327°
2026-04-28 17:14 49.22749 2.67743 38066 ft 454 kts 327°
2026-04-28 17:15 49.28220 2.62884 38067 ft 456 kts 328°
2026-04-28 17:15 49.33715 2.57993 38076 ft 458 kts 327°
2026-04-28 17:16 49.39196 2.53099 38080 ft 460 kts 328°
2026-04-28 17:16 49.41882 2.50318 38067 ft 459 kts 317°
2026-04-28 17:16 49.44206 2.46970 38096 ft 458 kts 313°
2026-04-28 17:17 49.48656 2.40017 38086 ft 460 kts 312°
2026-04-28 17:17 49.53178 2.32920 38068 ft 463 kts 312°
2026-04-28 17:18 49.57698 2.25911 38088 ft 465 kts 313°
2026-04-28 17:18 49.62286 2.18835 38083 ft 468 kts 313°
2026-04-28 17:19 49.66897 2.11716 38100 ft 469 kts 314°
2026-04-28 17:19 49.71513 2.04566 38085 ft 470 kts 313°
2026-04-28 17:20 49.75348 1.98607 38084 ft 470 kts 314°
2026-04-28 17:20 49.80732 1.90214 38101 ft 470 kts 313°
2026-04-28 17:21 49.85324 1.83035 38124 ft 469 kts 314°
2026-04-28 17:22 49.92198 1.72248 38117 ft 468 kts 314°
2026-04-28 17:22 49.96766 1.65054 38127 ft 467 kts 314°
2026-04-28 17:23 50.03593 1.54265 38120 ft 466 kts 314°
2026-04-28 17:23 50.08126 1.47074 38136 ft 466 kts 314°
2026-04-28 17:24 50.12635 1.39901 38127 ft 466 kts 314°
2026-04-28 17:24 50.17169 1.32669 38161 ft 467 kts 314°
2026-04-28 17:25 50.23960 1.21796 37853 ft 462 kts 315°
2026-04-28 17:25 50.26201 1.18197 37167 ft 463 kts 315°
2026-04-28 17:26 50.28447 1.14585 36581 ft 463 kts 315°
2026-04-28 17:26 50.30712 1.10938 35643 ft 472 kts 314°
2026-04-28 17:26 50.33007 1.07237 34978 ft 475 kts 314°
2026-04-28 17:26 50.35311 1.03516 34312 ft 477 kts 314°
2026-04-28 17:27 50.37624 0.99774 33578 ft 479 kts 314°
2026-04-28 17:27 50.39943 0.96017 32873 ft 480 kts 314°
2026-04-28 17:27 50.42251 0.92273 32432 ft 475 kts 315°
2026-04-28 17:27 50.44538 0.88569 31931 ft 471 kts 317°
2026-04-28 17:28 50.46935 0.85112 31441 ft 465 kts 322°
2026-04-28 17:28 50.51907 0.78743 30517 ft 458 kts 323°
2026-04-28 17:28 50.54346 0.75559 30012 ft 455 kts 323°
2026-04-28 17:29 50.56751 0.72363 29492 ft 451 kts 323°
2026-04-28 17:29 50.59139 0.69172 28813 ft 450 kts 322°
2026-04-28 17:29 50.61521 0.65983 28196 ft 449 kts 322°
2026-04-28 17:30 50.66230 0.59670 27149 ft 440 kts 323°
2026-04-28 17:30 50.70872 0.53439 26097 ft 436 kts 323°
2026-04-28 17:30 50.72398 0.51387 25781 ft 433 kts 323°
2026-04-28 17:31 50.74686 0.48309 25319 ft 430 kts 323°
2026-04-28 17:31 50.79204 0.42217 24247 ft 428 kts 323°
2026-04-28 17:32 50.83751 0.36075 22827 ft 430 kts 323°
2026-04-28 17:32 50.86008 0.33014 22295 ft 425 kts 323°
2026-04-28 17:32 50.88238 0.29986 21756 ft 421 kts 323°
2026-04-28 17:32 50.90442 0.26989 21422 ft 412 kts 324°
2026-04-28 17:33 50.92592 0.24060 21166 ft 403 kts 324°
2026-04-28 17:33 50.94696 0.21195 20907 ft 396 kts 324°
2026-04-28 17:33 50.96768 0.18372 20652 ft 391 kts 324°
2026-04-28 17:33 50.98132 0.16514 20494 ft 390 kts 324°
2026-04-28 17:34 51.00887 0.12755 20354 ft 391 kts 323°
2026-04-28 17:34 51.02997 0.10014 20328 ft 393 kts 328°
2026-04-28 17:34 51.05217 0.07491 20325 ft 392 kts 330°
2026-04-28 17:34 51.07466 0.05062 20325 ft 391 kts 331°
2026-04-28 17:35 51.09720 0.02648 20300 ft 391 kts 330°
2026-04-28 17:35 51.11978 0.00212 20040 ft 392 kts 330°
2026-04-28 17:35 51.14213 -0.02229 19742 ft 387 kts 330°
2026-04-28 17:35 51.16421 -0.04663 19488 ft 385 kts 330°
2026-04-28 17:36 51.18622 -0.07101 19244 ft 384 kts 330°
2026-04-28 17:36 51.20813 -0.09536 19006 ft 384 kts 330°
2026-04-28 17:36 51.23001 -0.11974 18761 ft 383 kts 330°
2026-04-28 17:36 51.25156 -0.14378 18514 ft 382 kts 330°
2026-04-28 17:37 51.27360 -0.16840 18297 ft 380 kts 330°
2026-04-28 17:37 51.29499 -0.19232 18250 ft 381 kts 330°
2026-04-28 17:37 51.31657 -0.21650 18202 ft 376 kts 330°
2026-04-28 17:37 51.33787 -0.24039 17863 ft 372 kts 330°
2026-04-28 17:38 51.35905 -0.26414 17381 ft 370 kts 330°
2026-04-28 17:38 51.37991 -0.28758 17140 ft 363 kts 330°
2026-04-28 17:38 51.40036 -0.31060 16870 ft 356 kts 330°
2026-04-28 17:38 51.42173 -0.32864 16558 ft 339 kts 351°
2026-04-28 17:39 51.44438 -0.33221 16360 ft 319 kts 10°
2026-04-28 17:39 51.46542 -0.32550 16271 ft 300 kts 26°
2026-04-28 17:39 51.50629 -0.31293 14756 ft 326 kts 354°
2026-04-28 17:40 51.52813 -0.32641 13633 ft 349 kts 331°
2026-04-28 17:40 51.54730 -0.35158 12491 ft 362 kts 319°
2026-04-28 17:40 51.56512 -0.38080 11395 ft 369 kts 316°
2026-04-28 17:40 51.58130 -0.41311 10310 ft 375 kts 305°
2026-04-28 17:41 51.59475 -0.44925 9200 ft 378 kts 302°
2026-04-28 17:41 51.60762 -0.48613 8162 ft 378 kts 301°
2026-04-28 17:41 51.62004 -0.52274 7867 ft 366 kts 301°
2026-04-28 17:41 51.63187 -0.55807 7773 ft 352 kts 301°
2026-04-28 17:42 51.64320 -0.59230 7665 ft 339 kts 301°
2026-04-28 17:42 51.65370 -0.62439 7556 ft 319 kts 301°
2026-04-28 17:42 51.66364 -0.65508 7531 ft 299 kts 301°
2026-04-28 17:42 51.67369 -0.68332 7497 ft 281 kts 313°
2026-04-28 17:43 51.68651 -0.70589 7465 ft 266 kts 320°
2026-04-28 17:43 51.69933 -0.72663 7209 ft 258 kts 320°
2026-04-28 17:43 51.71294 -0.74464 6682 ft 247 kts 343°
2026-04-28 17:43 51.72891 -0.74767 6152 ft 223 kts 17°
2026-04-28 17:44 51.74418 -0.74345 5699 ft 224 kts 15°
2026-04-28 17:44 51.75869 -0.73633 5202 ft 213 kts 40°
2026-04-28 17:44 51.76992 -0.72152 4801 ft 206 kts 43°
2026-04-28 17:44 51.78101 -0.70762 4501 ft 197 kts 41°
2026-04-28 17:45 51.79178 -0.69461 4269 ft 189 kts 40°
2026-04-28 17:45 51.80211 -0.68232 4037 ft 180 kts 39°
2026-04-28 17:45 51.81194 -0.67070 3826 ft 170 kts 39°
2026-04-28 17:45 51.82066 -0.65863 3634 ft 161 kts 56°
2026-04-28 17:46 51.82508 -0.64227 3543 ft 159 kts 66°
2026-04-28 17:46 51.82932 -0.62570 3417 ft 160 kts 64°
2026-04-28 17:46 51.83315 -0.60875 3334 ft 158 kts 67°
2026-04-28 17:46 51.83628 -0.59203 3199 ft 154 kts 69°
2026-04-28 17:47 51.83919 -0.57546 2978 ft 151 kts 70°
2026-04-28 17:47 51.84199 -0.55912 2801 ft 150 kts 70°
2026-04-28 17:47 51.84476 -0.54288 2581 ft 149 kts 70°
2026-04-28 17:47 51.84657 -0.53225 2450 ft 147 kts 70°
2026-04-28 17:48 51.85018 -0.51113 2176 ft 144 kts 70°
2026-04-28 17:48 51.85281 -0.49567 1998 ft 143 kts 70°
2026-04-28 17:48 51.85548 -0.48009 1780 ft 143 kts 70°
2026-04-28 17:48 51.85805 -0.46500 1599 ft 133 kts 69°
2026-04-28 17:49 51.86051 -0.45072 1413 ft 132 kts 70°
2026-04-28 17:49 51.86293 -0.43665 1238 ft 133 kts 70°
2026-04-28 17:49 51.86535 -0.42241 1032 ft 131 kts 70°
2026-04-28 17:49 51.86778 -0.40830 873 ft 131 kts 69°
2026-04-28 17:50 51.87034 -0.39334 681 ft 141 kts 71°
2026-04-28 17:50 51.87291 -0.37840 525 ft 132 kts 75°
2026-04-28 17:50 51.87461 -0.36852 522 ft 61 kts 74°
2026-04-28 17:50 51.87567 -0.36241 519 ft 46 kts 74°
2026-04-28 17:51 51.87615 -0.35960 515 ft 11 kts 75°
2026-04-28 17:51 51.87675 -0.35920 515 ft 11 kts 343°
2026-04-28 17:51 51.87745 -0.35956 515 ft 10 kts 334°
2026-04-28 17:51 51.87784 -0.36048 517 ft 10 kts 274°
2026-04-28 17:52 51.87768 -0.36172 517 ft 13 kts 255°
2026-04-28 17:52 51.87736 -0.36352 517 ft 20 kts 254°
2026-04-28 17:52 51.87647 -0.36869 524 ft 27 kts 254°
2026-04-28 17:53 51.87605 -0.37109 521 ft 21 kts 254°
2026-04-28 17:53 51.87577 -0.37279 521 ft 13 kts 261°
2026-04-28 17:53 51.87595 -0.37419 521 ft 13 kts 306°
2026-04-28 17:53 51.87671 -0.37501 520 ft 14 kts 323°
2026-04-28 17:54 51.87722 -0.37648 518 ft 17 kts 294°
2026-04-28 17:54 51.87773 -0.37821 522 ft 17 kts 296°
2026-04-28 17:54 51.87834 -0.37978 522 ft 17 kts 322°
2026-04-28 17:54 51.87941 -0.38009 522 ft 16 kts 15°
2026-04-28 17:55 51.88027 -0.37923 522 ft 10 kts 38°
2026-04-28 17:55 51.88044 -0.37877 522 ft 4 kts 114°
2026-04-28 17:55 51.88028 -0.37845 522 ft 3 kts 129°
2026-04-28 17:55 51.88021 -0.37830 522 ft 0 kts 128°